Flag for Switzerland Weather past 2 weeks in Cham, Zug, Switzerland

Now
58 °F

Cool.


Feels Like: 58 °F
Forecast: 48 / 68 °F
Wind: 2 mph from Northeast

Location: Zurich Town / Ville.

Current Time: Oct 1, 2014 at 10:34:40 AM

Latest Report: Oct 1, 2014 at 9:00 AM


Visibility: N/A

Pressure: 30.30 "Hg

Humidity: 98%

Dew point: 57 °F

Location of ChamLocation

Historic Weather in Cham — Graph

°F

Cham temperature yesterday

Maximum temperature yesterday: 62 °F (at 1:00 PM)
Minimum temperature yesterday: 58 °F (at 5:00 AM)
Average temperature yesterday: 60 °F

Past Weeks' High & Low Weather Summary

 TemperatureHumidityPressure
High73 °F (Sep 20, 3:00 PM)100% (Sep 16, 9:00 AM)30.35 "Hg (Sep 16, 9:00 AM)
Low41 °F (Sep 23, 6:00 AM)47% (Sep 23, 4:00 PM)29.81 "Hg (Sep 17, 5:00 PM)
Average58 °F83%30.11 "Hg
* Reported Sep 16 9:00 AM — Oct 1 9:00 AM, Cham, Weather by CustomWeather, © 2014

Note: Actual official high and low records may vary slightly from our data, if they occured in-between our weather recording intervals... More about our weather records

Advertising

Cham weather history for previous 24 hours

 ConditionsComfort  
Time TempWeatherWind HumidityBarometerVisibility
9:00 AM
Oct 1
58 °FCool.2 mph98%30.30 "HgN/A
8:00 AM58 °FFog.1 mph98%30.29 "HgN/A
7:00 AM58 °FCool.1 mph98%30.29 "HgN/A
6:00 AM58 °FCool.No wind98%30.29 "HgN/A
5:00 AM58 °FCool.No wind97%30.29 "HgN/A
4:00 AM58 °FCool.No wind95%30.30 "HgN/A
3:00 AM58 °FCool.1 mph97%30.30 "HgN/A
2:00 AM58 °FCool.No wind96%30.30 "HgN/A
1:00 AM58 °FCool.2 mph96%30.30 "HgN/A
12:00 AM59 °FCool.No wind97%30.31 "HgN/A
11:00 PM
Sep 30
59 °FCool.1 mph95%30.32 "HgN/A
10:00 PM59 °FCool.1 mph95%30.31 "HgN/A
9:00 PM59 °FCool.1 mph96%30.31 "HgN/A
8:00 PM60 °FPassing clouds.1 mph93%30.31 "HgN/A
7:00 PM60 °FCool.3 mph92%30.30 "HgN/A
6:00 PM60 °FCool.3 mph94%30.29 "HgN/A
5:00 PM61 °FCool.3 mph94%30.30 "HgN/A
4:00 PM62 °FCool.3 mph92%30.30 "HgN/A
3:00 PM62 °FCool.1 mph89%30.30 "HgN/A
2:00 PM62 °FCool.2 mph86%30.31 "HgN/A
1:00 PM62 °FCool.2 mph90%30.31 "HgN/A
12:00 PM61 °FCool.2 mph89%30.31 "HgN/A
11:00 AM62 °FCool.1 mph84%30.31 "HgN/A
10:00 AM60 °FCool.2 mph88%30.31 "HgN/A
Weather by CustomWeather, © 2014

See weather overviewHow to use our weather pages